Regional Weather Roundup
Issued by NWS Goodland, KS

Home | Current Version | Previous Version | Text Only | Print | Product List | Glossary Off
Versions: 1 2 3 4 5 6 7 8 9 10 11 12 13 14 15 16 17 18 19 20 21 22 23 24 25 26 27 28 29 30 31 32 33 34 35 36 37 38 39 40 41 42 43 44 45 46 47 48 49 50

000
ASUS43 KGLD 231808
RWRGLD

GOODLAND FORECAST AREA HOURLY WEATHER ROUNDUP
NATIONAL WEATHER SERVICE GOODLAND KS
1100 AM MST THU FEB 23 2017

...OFFICIAL OBSERVATIONS...

CITY           SKY/WX    TMP DP  RH WIND       PRES   REMARKS
GOODLAND KS    CLOUDY    33  33 100 NE16      29.52F
HILL CITY KS   CLOUDY    43  35  73 E17G26    29.56F
IMPERIAL NEB   SNOW      29  28  96 NE21      29.60F VSB 1/2 WCI  16
MCCOOK NEB     CLOUDY    32  32 100 NE20      29.60F FOG
AKRON CO       FRZ RAIN  28  26  92 NE17G25   29.54S FOG     WCI  16
BURLINGTON CO  CLOUDY    34  33  96 E18       29.50F FOG
LIMON CO       CLOUDY    31  31 100 E12       29.49S FOG
$$

...UNOFFICIAL OBSERVATIONS...

CITY           SKY/WX    TMP DP  RH WIND       PRES   REMARKS
LENORA KS        N/A     38  32  79 E9G16       N/A
NORTON KS      CLOUDY    36  28  75 NE18G24   29.57F
SHARON SPRINGS   N/A     38  35  90 NE15G22     N/A
TRENTON NEB      N/A     31  32 100 NE9         N/A
KIT CARSON CO    N/A     36  32  86 MISG        N/A
YUMA CO        CLOUDY    30  30 100 NE10      29.55F FOG
$$




USA.gov is the U.S. government's official web portal to all federal, state and local government web resources and services.